Stations météo

réclame
Mon MeteoGroup
Kielder Castle, Grande-Bretagne (99186): Température de l'air & dewpoint: 05.12.2017 02:00:00 - 11.12.2017 02:00:00 (GMT)Kielder Castle, Grande-Bretagne (99186): Température de l'air -20cm & Température de l'air -100cm: 05.12.2017 02:00:00 - 11.12.2017 02:00:00 (GMT)Kielder Castle, Grande-Bretagne (99186): Quantités de précipitations: 05.12.2017 02:00:00 - 11.12.2017 02:00:00 (GMT)
Date & Time tt [°C] td [°C] tt -20cm [°C] tt -100cm [°C] rr [mm]
11.12.2017 02:00:00 - - - - -
11.12.2017 01:00:00 -9,2 -10,5 - - 0,0
11.12.2017 00:00:00 -8,2 -9,4 - - 0,0
10.12.2017 23:00:00 -7,7 -8,9 - - 0,0
10.12.2017 22:00:00 -7,7 -8,7 - - 0,0
10.12.2017 21:00:00 -7,4 -8,2 - - 0,0
10.12.2017 20:00:00 -6,6 -7,3 - - 0,0
10.12.2017 19:00:00 -5,3 -5,9 - - 0,0
10.12.2017 18:00:00 -5,1 -6,3 - - 0,0
10.12.2017 17:00:00 -4,1 -5,2 - - 0,0
10.12.2017 16:00:00 -2,4 -3,9 - - 0,0
10.12.2017 15:00:00 -2,0 -3,9 - - 0,0
10.12.2017 14:00:00 -2,1 -4,1 - - 0,0
10.12.2017 13:00:00 -3,0 -4,6 - - 0,0
10.12.2017 12:00:00 -3,7 -4,7 - - 0,0
10.12.2017 11:00:00 -4,2 -5,0 - - 0,0
10.12.2017 10:00:00 -7,0 -7,9 - - 0,0
10.12.2017 09:00:00 -7,7 -8,4 3,0 5,7 0,0
10.12.2017 08:00:00 -7,8 -8,8 - - 0,0
10.12.2017 07:00:00 -6,6 -7,7 - - 0,0
10.12.2017 06:00:00 -5,9 -6,8 - - 0,0
10.12.2017 05:00:00 -4,3 -5,0 - - 0,0
10.12.2017 04:00:00 -4,3 -5,0 - - 0,0
10.12.2017 03:00:00 -4,1 -4,7 - - 0,0
10.12.2017 02:00:00 -4,5 -5,1 - - 0,0
10.12.2017 01:00:00 -4,9 -5,5 - - 0,0
10.12.2017 00:00:00 -5,9 -6,5 - - 0,0
09.12.2017 23:00:00 -6,1 -6,9 - - 0,0
09.12.2017 22:00:00 -5,9 -6,8 - - 0,0
09.12.2017 21:00:00 -5,1 -5,7 - - 0,0
09.12.2017 20:00:00 -5,0 -5,8 - - 0,0
09.12.2017 19:00:00 -4,2 -4,8 - - 0,0
09.12.2017 18:00:00 -3,7 -4,4 - - 0,0
09.12.2017 17:00:00 -2,9 -3,8 - - 0,0
09.12.2017 16:00:00 -1,3 -3,0 - - 0,0
09.12.2017 15:00:00 0,1 -2,4 - - 0,0
09.12.2017 14:00:00 1,7 -3,2 - - 0,0
09.12.2017 13:00:00 0,1 -2,6 - - 0,2
09.12.2017 12:00:00 -1,1 -2,4 - - 0,0
09.12.2017 11:00:00 -2,7 -3,5 - - 0,0
09.12.2017 10:00:00 -4,8 -5,1 - - 0,0
09.12.2017 09:00:00 -6,0 -6,7 3,7 5,9 0,0
09.12.2017 08:00:00 -5,9 -6,6 - - 0,0
09.12.2017 07:00:00 -5,5 -6,4 - - 0,0
09.12.2017 06:00:00 -4,4 -5,6 - - 0,0
09.12.2017 05:00:00 -3,9 -5,4 - - 0,0
09.12.2017 04:00:00 -4,2 -5,3 - - 0,0
09.12.2017 03:00:00 -3,4 -5,2 - - 0,0
09.12.2017 02:00:00 -1,9 -5,0 - - 0,0
09.12.2017 01:00:00 -1,4 -5,0 - - 0,0
09.12.2017 00:00:00 -0,9 -4,5 - - 0,0
08.12.2017 23:00:00 -2,2 -4,7 - - 0,0
08.12.2017 22:00:00 -4,1 -5,4 - - 0,0
08.12.2017 21:00:00 -3,1 -5,5 - - 0,0
08.12.2017 20:00:00 -2,2 -5,2 - - 0,0
08.12.2017 19:00:00 -2,8 -5,4 - - 0,0
08.12.2017 18:00:00 -2,4 -5,4 - - 0,0
08.12.2017 17:00:00 -1,7 -5,5 - - 0,0
08.12.2017 16:00:00 -1,0 -5,4 - - 0,0
08.12.2017 15:00:00 -0,2 -5,6 - - 0,0
08.12.2017 14:00:00 0,4 -5,6 - - 0,0
08.12.2017 13:00:00 0,5 -5,2 - - 0,4
08.12.2017 12:00:00 0,5 -4,7 - - 0,0
08.12.2017 11:00:00 -0,5 -4,5 - - 0,0
08.12.2017 10:00:00 -3,2 -3,9 - - 0,0
08.12.2017 09:00:00 -3,7 -4,4 4,7 5,7 0,0
08.12.2017 08:00:00 -2,9 -4,5 - - 0,0
08.12.2017 07:00:00 -2,1 -4,2 - - 0,0
08.12.2017 06:00:00 -2,2 -3,7 - - 0,0
08.12.2017 05:00:00 -2,5 -3,3 - - 0,0
08.12.2017 04:00:00 -1,9 -2,7 - - 0,0
08.12.2017 03:00:00 -1,5 -2,4 - - 0,0
08.12.2017 02:00:00 0,0 -2,6 - - 0,0
08.12.2017 01:00:00 0,2 -1,3 - - 0,0
08.12.2017 00:00:00 -0,3 -0,9 - - 0,0
07.12.2017 23:00:00 0,5 -0,4 - - 0,0
07.12.2017 22:00:00 0,6 -0,2 - - 0,0
07.12.2017 21:00:00 0,8 0,0 - - 0,2
07.12.2017 20:00:00 1,0 0,3 - - 0,4
07.12.2017 19:00:00 1,3 0,4 - - 0,0
07.12.2017 18:00:00 1,8 0,5 - - 0,2
07.12.2017 17:00:00 1,9 0,6 - - 0,0
07.12.2017 16:00:00 2,0 -0,1 - - 0,0
07.12.2017 15:00:00 2,0 0,9 - - 0,8
07.12.2017 14:00:00 3,1 1,7 - - 0,8
07.12.2017 13:00:00 4,1 1,2 - - 0,0
07.12.2017 12:00:00 4,7 1,5 - - 0,0
07.12.2017 11:00:00 5,2 2,2 - - 0,0
07.12.2017 10:00:00 5,5 2,5 - - 0,0
07.12.2017 09:00:00 5,4 2,0 4,7 5,7 0,0
07.12.2017 08:00:00 5,2 2,5 - - 0,0
07.12.2017 07:00:00 5,0 2,1 - - 0,0
07.12.2017 06:00:00 6,3 3,4 - - 0,0
07.12.2017 05:00:00 9,1 7,6 - - 2,2
07.12.2017 04:00:00 11,3 10,7 - - 4,2
07.12.2017 03:00:00 11,5 10,8 - - 1,8
07.12.2017 02:00:00 11,4 10,8 - - 1,4
07.12.2017 01:00:00 11,4 10,5 - - 1,6
07.12.2017 00:00:00 10,9 10,1 - - 1,2
06.12.2017 23:00:00 10,8 9,9 - - 0,4
06.12.2017 22:00:00 10,5 9,8 - - 0,0
06.12.2017 21:00:00 10,0 9,3 - - 0,8
06.12.2017 20:00:00 9,7 9,0 - - 0,6
06.12.2017 19:00:00 9,5 8,8 - - 1,4
06.12.2017 18:00:00 9,5 8,7 - - 0,8
06.12.2017 17:00:00 9,2 8,5 - - 1,4
06.12.2017 16:00:00 9,0 8,3 - - 1,8
06.12.2017 15:00:00 9,3 8,0 - - 0,4
06.12.2017 14:00:00 9,4 7,5 - - 0,0
06.12.2017 13:00:00 9,8 6,7 - - 0,0
06.12.2017 12:00:00 9,3 6,9 - - 0,0
06.12.2017 11:00:00 9,2 6,1 - - 0,0
06.12.2017 10:00:00 8,7 5,9 - - 0,0
06.12.2017 09:00:00 8,3 5,8 3,7 5,7 0,0
06.12.2017 08:00:00 7,8 6,1 - - 0,0
06.12.2017 07:00:00 7,6 6,5 - - 0,0
06.12.2017 06:00:00 7,3 5,9 - - 0,0
06.12.2017 05:00:00 7,5 5,4 - - 0,0
06.12.2017 04:00:00 7,5 5,6 - - 0,0
06.12.2017 03:00:00 7,3 5,6 - - 0,0
06.12.2017 02:00:00 7,0 5,5 - - 0,0
06.12.2017 01:00:00 7,0 5,9 - - 0,2
06.12.2017 00:00:00 7,1 6,1 - - 0,0
05.12.2017 23:00:00 7,0 6,0 - - 0,0
05.12.2017 22:00:00 6,7 5,6 - - 0,0
05.12.2017 21:00:00 6,4 5,6 - - 0,0
05.12.2017 20:00:00 6,3 5,4 - - 0,0
05.12.2017 19:00:00 6,0 5,1 - - 0,0
05.12.2017 18:00:00 6,2 4,7 - - 0,0
05.12.2017 17:00:00 5,8 4,1 - - 0,0
05.12.2017 16:00:00 5,9 3,6 - - 0,0
05.12.2017 15:00:00 6,2 3,8 - - 0,0
05.12.2017 14:00:00 6,4 3,7 - - 0,0
05.12.2017 13:00:00 6,5 3,9 - - 0,0
05.12.2017 12:00:00 6,6 4,1 - - 0,0
05.12.2017 11:00:00 6,3 4,5 - - 0,0
05.12.2017 10:00:00 5,9 4,2 - - 0,0
05.12.2017 09:00:00 5,5 3,3 2,7 5,7 0,0
05.12.2017 08:00:00 5,4 3,0 - - 0,0
05.12.2017 07:00:00 5,9 3,7 - - 0,0
05.12.2017 06:00:00 5,9 3,8 - - 0,0
05.12.2017 05:00:00 6,0 4,2 - - 0,0
05.12.2017 04:00:00 6,4 4,8 - - 0,0
05.12.2017 03:00:00 6,8 5,0 - - 0,0
05.12.2017 02:00:00 6,7 5,7 - - 0,0

tt = Température de l'air
td = dewpoint
tt -20cm = Température de l'air -20cm
tt -100cm = Température de l'air -100cm
rr = Quantités de précipitations

stations d'obs. à proximité